Terminal Aerodrome Forecast
Issued by NWS Denver/Boulder, CO

Home | Current Version | Previous Version | Text Only | Print | Product List | Glossary On
Versions: 1 2 3 4 5 6 7 8 9 10 11 12 13 14 15 16 17 18 19 20 21 22 23 24 25 26 27 28 29 30 31 32 33 34 35 36
000
FTUS45 KBOU 282324
TAFDEN
TAF
KDEN 282324Z 2900/3006 04014KT P6SM SCT050 BKN100
      TEMPO 2900/2903 VRB20G35KT -TSRA BKN050CB
     FM290300 08014KT P6SM VCTS SCT070CB BKN120
     FM290500 15010KT P6SM SCT070 BKN120
     FM290700 19008KT P6SM SCT120
     FM291100 32006KT P6SM VCFG BKN010
     FM291500 03006KT P6SM SCT010 BKN030
     FM291700 08008KT P6SM SCT030 SCT080
     FM292000 12010KT P6SM SCT060 BKN080 PROB30 2922/3001 -TSRA
      BKN060CB=

USA.gov is the U.S. government's official web portal to all federal, state and local government web resources and services.